星链-35588(STARLINK-35588)

导读

STARLINK-35588是美国SpaceX公司星链星座的一员,于2025年11月11日发射升空。星链项目旨在构建全球低轨宽带通信网络,为全球用户提供高速互联网接入服务。该卫星采用平板设计,搭载先进通信载荷与相控阵天线,配备霍尔推进器,具备自主避撞能力,寿命末期将主动离轨再入大气层烧毁,服务全球偏远地区及特殊场景网络覆盖。

基本信息
目录编号:
66424
目录名称:
STARLINK-35588
国际标识:
2025-259C
轨道中心:
EARTH
卫星名称:
星链-35588
卫星全名:
星链-35588(STARLINK-35588)
卫星状态:
在轨 (已飞行214 天)
发射日期:
2025-11-11 UTC
国别 :
美国 (US)
星等 :
--
轨道信息
数据来源 国际轨道数据 AOE轨道数据
星历时间 2026-06-11T21:00:41+0800
1天前
查看轨道信息
2026-06-10T23:00:00+0800
2天前
查看轨道信息
半长轴 6861.135km 6861.182km
偏心率 0.000038 0.0000125
轨道倾角 43.006° 43.000°
近地点辐角 269.189° 170.931°
升交点赤经 104.425° 109.607°
平近点角 90.892° 179.660°
近地点 482.737km 482.959km
远地点 483.259km 483.131km
周期 94.266分钟 94.267分钟
每日圈数 15.275971 15.275815
详细信息
固有亮度:
5
最大亮度:
2.5
卫星平台:
Starlink V1.0
覆盖范围:
全球
运营商:
太空探索技术公司
运营商所在国:
美国
制造商(研发单位):
太空探索技术公司
制造商所在国:
美国
使用方式:
暂无
卫星简介
Starlink 计划是 SpaceX 推出的全球卫星互联网项目,通过发射低轨道卫星,为全球尤其是偏远地区提供高速、低延迟的互联网服务。自 2019 年起,Starlink 已部署数千颗卫星,旨在缩小全球数字鸿沟,推动互联网普及。该项目还为军事、航空等行业提供通信支持,带来广泛经济效益。
2D轨道图
3D轨道图
轨道高度分析图
轨道倾角分析图
轨道综合分析图
查看轨道综合分析图